Weather History for Alpena, MI

Change the Weather History Date:

Friday, January 18, 2013

  Actual Average Record
Temperature  
Mean Temperature 20 °F 19 °F  
Max Temperature 33 °F 26 °F 52 °F (1973)
Min Temperature 6 °F 11 °F -23 °F (1948)
Degree Days  
Heating Degree Days 45 46  
Month to date heating degree days 671 817  
Since 1 July heating degree days 3447 3878  
Moisture  
Dew Point 10 °F    
Average Humidity 75    
Maximum Humidity 91    
Minimum Humidity 59    
Precipitation  
Precipitation 0.08 in 0.05 in 0.57 in (1943)
Month to date precipitation 0.96 1.03  
Year to date precipitation 0.96 1.03  
Snow  
Snow 0.60 in 0.70 in 7.40 in (1943)
Month to date snowfall 1.2 12.6  
Since 1 July snowfall 14.9 39.9  
Snow Depth T in    
Sea Level Pressure  
Sea Level Pressure 30.14 in    
Wind  
Wind Speed 8 mph (South)    
Max Wind Speed 17 mph    
Max Gust Speed 22 mph    
Visibility 7 miles    
Events Snow    
T = Trace of Precipitation, MM = Missing Value Source: NWS Daily Summary

Daily Weather History Graph

Daily Weather History Graph

Search for Another Location

Airport:

Trip Planner

Search our weather history database for the weather conditions in past years. The results will help you decide how hot, cold, wet, or windy it might be!

Date:

Astronomy

Jan. 18, 2013 Rise Set
Actual Time 8:07 AM EST 5:22 PM EST
Civil Twilight 7:34 AM EST 5:55 PM EST
Nautical Twilight 6:58 AM EST 6:31 PM EST
Astronomical Twilight 6:23 AM EST 7:06 PM EST
Moon 11:22 AM EST (1/18) 12:33 AM EST (1/18)
Length of Visible Light 10h 20m
Length of Day
9h 15m
Waxing Crescent, 47% of the Moon is Illuminated
Jan 18
Waxing Crescent
Jan 18
First Quarter
Jan 26
Full
Feb 3
Last Quarter
Feb 10
New

Hourly Weather History & Observations

Time (EST) Temp. Windchill Dew Point Humidity Pressure Visibility Wind Dir Wind Speed Gust Speed Precip Events Conditions
12:54 AM 8.1 °F -0.5 °F 1.9 °F 76% 30.32 in 10.0 mi WSW 4.6 mph - N/A   Clear
1:54 AM 7.0 °F -3.3 °F 1.9 °F 80% 30.33 in 10.0 mi West 5.8 mph - N/A   Clear
2:54 AM 8.1 °F -0.5 °F 3.0 °F 80% 30.35 in 10.0 mi SW 4.6 mph - N/A   Clear
3:54 AM 8.1 °F -3.2 °F 3.0 °F 80% 30.36 in 10.0 mi SW 6.9 mph - N/A   Clear
4:54 AM 7.0 °F 0.1 °F 1.9 °F 80% 30.36 in 10.0 mi SW 3.5 mph - N/A   Clear
5:54 AM 6.1 °F -2.8 °F 1.9 °F 83% 30.37 in 10.0 mi SW 4.6 mph - N/A   Clear
6:54 AM 7.0 °F -4.5 °F 1.9 °F 80% 30.38 in 10.0 mi SW 6.9 mph - N/A   Clear
7:54 AM 6.1 °F -2.8 °F 1.9 °F 83% 30.37 in 10.0 mi SSW 4.6 mph - N/A   Clear
8:00 AM 6.8 °F -2.0 °F 1.4 °F 79% 30.31 in 10.0 mi SSW 4.6 mph - N/A   Mostly Cloudy
8:54 AM 9.0 °F -3.2 °F 3.0 °F 77% 30.37 in 10.0 mi SSW 8.1 mph - N/A   Overcast
9:54 AM 12.0 °F -0.4 °F 3.9 °F 70% 30.36 in 10.0 mi SW 9.2 mph - N/A   Overcast
10:54 AM 14.0 °F 0.5 °F 3.9 °F 64% 30.35 in 10.0 mi SSW 11.5 mph - N/A   Overcast
11:54 AM 15.1 °F 2.5 °F 3.9 °F 61% 30.28 in 10.0 mi SSW 10.4 mph - N/A   Overcast
12:45 PM 17.6 °F 5.0 °F 8.6 °F 68% 30.17 in 2.5 mi South 11.5 mph - 0.00 in Snow Light Snow
12:54 PM 17.1 °F 5.0 °F 9.0 °F 71% 30.21 in 1.5 mi South 10.4 mph - 0.00 in Snow Light Snow
1:00 PM 15.8 °F 3.4 °F 10.4 °F 79% 30.16 in 1.2 mi South 10.4 mph - 0.00 in Snow Light Snow
1:20 PM 15.8 °F 3.4 °F 10.4 °F 79% 30.14 in 0.8 mi South 10.4 mph - 0.01 in Snow Light Snow
1:33 PM 15.8 °F 4.2 °F 10.4 °F 79% 30.12 in 1.0 mi South 9.2 mph - 0.01 in Snow Light Snow
1:43 PM 15.8 °F 5.1 °F 10.4 °F 79% 30.12 in 0.8 mi SSE 8.1 mph - 0.01 in Snow Light Snow
1:47 PM 15.8 °F 5.1 °F 12.2 °F 86% 30.11 in 0.5 mi SSE 8.1 mph - 0.01 in Snow Snow
1:54 PM 16.0 °F 6.3 °F 12.0 °F 84% 30.15 in 0.5 mi SSE 6.9 mph - 0.02 in Snow Snow
2:31 PM 17.6 °F 8.2 °F 12.2 °F 79% 30.06 in 0.2 mi SE 6.9 mph - 0.03 in Snow Heavy Snow
2:39 PM 17.6 °F 8.2 °F 14.0 °F 86% 30.06 in 0.5 mi SE 6.9 mph - 0.04 in Snow Snow
2:54 PM 17.1 °F 6.6 °F 12.9 °F 84% 30.10 in 2.0 mi ESE 8.1 mph - 0.05 in Snow Light Snow
3:00 PM 17.6 °F 9.3 °F 12.2 °F 79% 30.05 in 6.0 mi ESE 5.8 mph - 0.00 in Snow Light Snow
3:21 PM 17.6 °F 7.3 °F 14.0 °F 86% 30.03 in 4.0 mi ESE 8.1 mph - 0.00 in Snow Light Snow
3:54 PM 18.0 °F 7.7 °F 14.0 °F 84% 30.06 in 6.0 mi SE 8.1 mph - 0.01 in Snow Light Snow
4:54 PM 19.0 °F 9.0 °F 15.1 °F 85% 30.01 in 10.0 mi SE 8.1 mph - 0.00 in   Overcast
5:01 PM 19.4 °F 9.5 °F 15.8 °F 86% 29.95 in 10.0 mi SE 8.1 mph - N/A   Overcast
5:54 PM 19.9 °F 9.3 °F 17.1 °F 89% 29.96 in 10.0 mi SSE 9.2 mph - N/A   Overcast
6:54 PM 21.9 °F 12.5 °F 18.0 °F 85% 29.92 in 10.0 mi South 8.1 mph - N/A   Overcast
7:54 PM 25.0 °F 15.5 °F 19.0 °F 78% 29.88 in 10.0 mi South 9.2 mph - N/A   Overcast
8:54 PM 27.0 °F 19.5 °F 19.9 °F 75% 29.84 in 10.0 mi South 6.9 mph - N/A   Overcast
9:54 PM 30.0 °F 21.1 °F 21.9 °F 72% 29.81 in 10.0 mi SSW 10.4 mph - N/A   Overcast
10:54 PM 32.0 °F 23.6 °F 24.1 °F 73% 29.78 in 10.0 mi SSW 10.4 mph 18.4 mph N/A   Scattered Clouds
11:54 PM 32.0 °F 23.6 °F 25.0 °F 75% 29.75 in 10.0 mi SW 10.4 mph - N/A   Clear